sat.trackr.live / text

‹ back to catalog

STARLINK-5909

NORAD 55938 · 2023-037AA

PAYLOAD ACTIVE UNKNOWN

§ Identity

Operator
Country
US
Launch date
2023-03-17
Launch site
AFWTR
Launch vehicle
Mass (kg)
RCS (m²)

Purposes: comms

External: N2YO · Heavens-Above · Gunter

§ Orbital elements

Epoch: 2026-09-20T18:55:32.626848Z

Period
96.11 min
Inclination
69.9998°
Eccentricity
0.0002546
Mean motion
14.98325219 rev/d
Perigee alt
570.3 km
Apogee alt
573.8 km
Semi-major
6,950.2 km
B*
-3.4363e-5
RAAN
152.5637°
Arg perigee
281.5211°
Mean anomaly
78.5662°
Rev number
19,320

§ Raw data

STARLINK-59091 55938U 23037AA  26263.78857207 -.00000503  00000+0 -34363-4 0  99902 55938  69.9998 152.5637 0002546 281.5211  78.5662 14.98325219193201

JSON: /api/v1/satellites/55938 · /tle

For live sub-satellite position, see the globe view (requires WebGL).

§ Visibility from observer

Set your observer location to see the next 7 days of passes ≥ 10°. The values pass through the URL so the page stays shareable.

No JS? Fill the form by hand. The geolocation button needs JavaScript.